This is the latest recevied weather packets stored in our database for station/object W4FXD. If no packets are shown the sender has not sent any weather packets the latest 10 day(s).
| Time | Temp. | Humidity | Pressure | Rain* | Wind** | Luminosity | Snow |
|---|---|---|---|---|---|---|---|
| 1777757211 | 16.11° C | 45% | 1014.4 hPa | 0 mm | - | 91 W/m² | - |
| 1777756909 | 16.11° C | 45% | 1014.2 hPa | 0 mm | - | 86 W/m² | - |
| 1777756604 | 16.11° C | 45% | 1014.1 hPa | 0 mm | - | 114 W/m² | - |
| 1777756301 | 16.11° C | 44% | 1014.3 hPa | 0 mm | - | 165 W/m² | - |
| 1777755999 | 16.11° C | 43% | 1014.3 hPa | 0 mm | - | 173 W/m² | - |
| 1777755695 | 16.11° C | 44% | 1014.2 hPa | 0 mm | - | 157 W/m² | - |
| 1777755392 | 16.11° C | 43% | 1014 hPa | 0 mm | - | 179 W/m² | - |
| 1777755089 | 15.56° C | 44% | 1014.2 hPa | 0 mm | - | 175 W/m² | - |
| 1777754786 | 15.56° C | 44% | 1014.1 hPa | 0 mm | - | 162 W/m² | - |
| 1777754484 | 15.56° C | 43% | 1014.3 hPa | 0 mm | - | 137 W/m² | - |
| 1777754180 | 15.56° C | 44% | 1014.2 hPa | 0 mm | - | 148 W/m² | - |
| 1777753878 | 15.56° C | 44% | 1014.5 hPa | 0 mm | - | 143 W/m² | - |
| 1777753573 | 15.56° C | 43% | 1014.4 hPa | 0 mm | - | 150 W/m² | - |
| 1777753272 | 15.56° C | 43% | 1014.4 hPa | 0 mm | - | 163 W/m² | - |
| 1777752968 | 15.56° C | 44% | 1014.4 hPa | 0 mm | - | 167 W/m² | - |
| 1777752664 | 15.56° C | 42% | 1014.5 hPa | 0 mm | - | 116 W/m² | - |
| 1777752360 | 16.11° C | 42% | 1014.6 hPa | 0 mm | - | 128 W/m² | - |
| 1777752058 | 16.11° C | 42% | 1014.4 hPa | 0 mm | - | 117 W/m² | - |
| 1777751755 | 16.11° C | 40% | 1014.3 hPa | 0 mm | - | 152 W/m² | - |
| 1777751451 | 16.67° C | 39% | 1014.6 hPa | 0 mm | - | 168 W/m² | - |
| 1777751148 | 15.56° C | 41% | 1014.7 hPa | 0 mm | - | 197 W/m² | - |
| 1777750844 | 16.11° C | 41% | 1014.8 hPa | 0 mm | - | 166 W/m² | - |
| 1777750542 | 16.11° C | 41% | 1014.3 hPa | 0 mm | - | 142 W/m² | - |
| 1777750238 | 16.11° C | 42% | 1014.5 hPa | 0 mm | - | 130 W/m² | - |
| 1777749934 | 15.56° C | 43% | 1014.7 hPa | 0 mm | - | 170 W/m² | - |
* Rain latest hour (hover to see other rain measurements)
** Current wind speed in m/s (hover to see current wind gust speed)